TimeEST,TemperatureF,Dew PointF,Humidity,Sea Level PressureIn,VisibilityMPH,Wind Direction,Wind SpeedMPH,Gust SpeedMPH,PrecipitationIn,Events,Conditions,WindDirDegrees,DateUTC
12:15 AM,23.0,10.4,59,29.81,10.0,West,23.0,31.1,N/A,,Mostly Cloudy,280,2013-02-20 05:15:00
12:35 AM,21.2,10.4,63,29.81,10.0,West,24.2,33.4,N/A,,Mostly Cloudy,270,2013-02-20 05:35:00
12:55 AM,21.2,10.4,63,29.81,10.0,West,24.2,39.1,N/A,,Mostly Cloudy,270,2013-02-20 05:55:00
1:15 AM,21.2,12.2,68,29.81,10.0,West,19.6,28.8,N/A,,Overcast,270,2013-02-20 06:15:00
1:35 AM,21.2,8.6,58,29.81,10.0,West,25.3,36.8,N/A,,Scattered Clouds,270,2013-02-20 06:35:00
1:55 AM,19.4,10.4,68,29.81,10.0,West,21.9,28.8,N/A,,Scattered Clouds,270,2013-02-20 06:55:00
2:15 AM,19.4,8.6,63,29.81,10.0,West,20.7,38.0,N/A,,Scattered Clouds,270,2013-02-20 07:15:00
2:35 AM,19.4,10.4,68,29.81,10.0,West,18.4,34.5,N/A,,Scattered Clouds,270,2013-02-20 07:35:00
2:55 AM,19.4,10.4,68,29.82,10.0,West,20.7,27.6,N/A,,Scattered Clouds,270,2013-02-20 07:55:00
3:15 AM,17.6,10.4,73,29.81,10.0,West,20.7,27.6,N/A,,Scattered Clouds,270,2013-02-20 08:15:00
3:35 AM,17.6,8.6,68,29.81,10.0,West,20.7,33.4,N/A,,Scattered Clouds,270,2013-02-20 08:35:00
3:55 AM,17.6,8.6,68,29.80,10.0,West,21.9,32.2,N/A,,Scattered Clouds,270,2013-02-20 08:55:00
4:15 AM,17.6,8.6,68,29.81,10.0,West,20.7,29.9,N/A,,Scattered Clouds,280,2013-02-20 09:15:00
4:35 AM,17.6,8.6,68,29.81,10.0,West,24.2,33.4,N/A,,Scattered Clouds,280,2013-02-20 09:35:00
4:55 AM,15.8,8.6,73,29.81,10.0,West,25.3,38.0,N/A,,Scattered Clouds,280,2013-02-20 09:55:00
5:15 AM,15.8,8.6,73,29.82,10.0,West,20.7,32.2,N/A,,Clear,280,2013-02-20 10:15:00
5:35 AM,15.8,6.8,68,29.82,10.0,West,26.5,36.8,N/A,,Clear,280,2013-02-20 10:35:00
6:15 AM,15.8,8.6,73,29.83,10.0,West,25.3,35.7,N/A,,Overcast,270,2013-02-20 11:15:00
6:35 AM,15.8,8.6,73,29.83,10.0,West,23.0,34.5,N/A,,Overcast,280,2013-02-20 11:35:00
6:55 AM,14.0,8.6,79,29.83,10.0,WNW,26.5,33.4,N/A,,Mostly Cloudy,290,2013-02-20 11:55:00
7:15 AM,14.0,8.6,79,29.84,10.0,West,24.2,32.2,N/A,,Scattered Clouds,280,2013-02-20 12:15:00
7:35 AM,14.0,8.6,79,29.85,10.0,West,25.3,29.9,N/A,,Mostly Cloudy,280,2013-02-20 12:35:00
7:55 AM,15.8,8.6,73,29.86,10.0,West,23.0,34.5,N/A,,Mostly Cloudy,280,2013-02-20 12:55:00
8:15 AM,15.8,8.6,73,29.87,10.0,West,25.3,32.2,N/A,,Mostly Cloudy,280,2013-02-20 13:15:00
8:55 AM,15.8,8.6,73,29.86,10.0,West,24.2,28.8,N/A,,Overcast,280,2013-02-20 13:55:00
9:15 AM,17.6,8.6,68,29.87,10.0,WNW,23.0,29.9,N/A,,Mostly Cloudy,290,2013-02-20 14:15:00
9:35 AM,17.6,8.6,68,29.87,10.0,West,19.6,28.8,N/A,,Mostly Cloudy,280,2013-02-20 14:35:00
9:55 AM,17.6,8.6,68,29.87,10.0,West,19.6,27.6,N/A,,Scattered Clouds,280,2013-02-20 14:55:00
10:15 AM,19.4,8.6,63,29.87,10.0,West,23.0,32.2,N/A,,Clear,280,2013-02-20 15:15:00
10:35 AM,19.4,8.6,63,29.88,10.0,West,25.3,32.2,N/A,,Clear,280,2013-02-20 15:35:00
10:55 AM,21.2,10.4,63,29.88,10.0,WNW,17.3,25.3,N/A,,Clear,290,2013-02-20 15:55:00
11:15 AM,21.2,10.4,63,29.88,10.0,WNW,20.7,29.9,N/A,,Clear,290,2013-02-20 16:15:00
11:35 AM,21.2,10.4,63,29.88,10.0,WNW,21.9,29.9,N/A,,Clear,290,2013-02-20 16:35:00
11:55 AM,21.2,10.4,63,29.88,10.0,West,23.0,29.9,N/A,,Clear,280,2013-02-20 16:55:00
12:15 PM,21.2,10.4,63,29.88,10.0,West,24.2,31.1,N/A,,Clear,280,2013-02-20 17:15:00
12:35 PM,21.2,10.4,63,29.87,10.0,WNW,20.7,33.4,N/A,,Clear,290,2013-02-20 17:35:00
12:55 PM,23.0,10.4,59,29.89,10.0,WNW,17.3,28.8,N/A,,Clear,300,2013-02-20 17:55:00
1:15 PM,23.0,10.4,59,29.88,10.0,West,19.6,28.8,N/A,,Clear,270,2013-02-20 18:15:00
1:35 PM,23.0,10.4,59,29.88,10.0,WNW,20.7,31.1,N/A,,Clear,290,2013-02-20 18:35:00
1:55 PM,24.8,12.2,59,29.89,10.0,West,20.7,26.5,N/A,,Clear,280,2013-02-20 18:55:00
2:15 PM,23.0,12.2,63,29.89,10.0,West,20.7,29.9,N/A,,Clear,280,2013-02-20 19:15:00
2:35 PM,23.0,12.2,63,29.89,10.0,WNW,23.0,27.6,N/A,,Clear,290,2013-02-20 19:35:00
2:55 PM,23.0,10.4,59,29.90,10.0,WNW,19.6,32.2,N/A,,Clear,290,2013-02-20 19:55:00
3:15 PM,23.0,10.4,59,29.90,10.0,WNW,19.6,29.9,N/A,,Clear,290,2013-02-20 20:15:00
3:35 PM,23.0,10.4,59,29.90,10.0,WNW,17.3,27.6,N/A,,Clear,290,2013-02-20 20:35:00
3:55 PM,23.0,10.4,59,29.90,10.0,WNW,18.4,28.8,N/A,,Clear,290,2013-02-20 20:55:00
4:15 PM,23.0,10.4,59,29.90,10.0,WNW,24.2,33.4,N/A,,Clear,290,2013-02-20 21:15:00
4:35 PM,23.0,10.4,59,29.91,10.0,West,23.0,28.8,N/A,,Clear,280,2013-02-20 21:35:00
4:55 PM,23.0,10.4,59,29.92,10.0,WNW,18.4,28.8,N/A,,Clear,290,2013-02-20 21:55:00
5:15 PM,21.2,8.6,58,29.91,10.0,West,21.9,33.4,N/A,,Clear,280,2013-02-20 22:15:00
5:35 PM,21.2,8.6,58,29.92,10.0,West,19.6,27.6,N/A,,Clear,280,2013-02-20 22:35:00
5:55 PM,19.4,8.6,63,29.93,10.0,West,23.0,29.9,N/A,,Clear,280,2013-02-20 22:55:00
6:15 PM,19.4,8.6,63,29.95,10.0,West,18.4,27.6,N/A,,Clear,280,2013-02-20 23:15:00
6:35 PM,19.4,8.6,63,29.96,10.0,WNW,18.4,27.6,N/A,,Clear,290,2013-02-20 23:35:00
6:55 PM,17.6,8.6,68,29.96,10.0,WNW,17.3,31.1,N/A,,Clear,290,2013-02-20 23:55:00
7:15 PM,17.6,8.6,68,29.97,10.0,WNW,16.1,25.3,N/A,,Clear,290,2013-02-21 00:15:00
7:35 PM,17.6,8.6,68,29.98,10.0,WNW,20.7,28.8,N/A,,Clear,290,2013-02-21 00:35:00
7:55 PM,17.6,8.6,68,29.98,10.0,West,18.4,25.3,N/A,,Clear,280,2013-02-21 00:55:00
8:15 PM,15.8,8.6,73,29.99,10.0,West,24.2,31.1,N/A,,Clear,280,2013-02-21 01:15:00
8:35 PM,15.8,8.6,73,30.00,10.0,WNW,24.2,29.9,N/A,,Clear,290,2013-02-21 01:35:00
8:55 PM,15.8,8.6,73,29.99,10.0,West,26.5,32.2,N/A,,Clear,280,2013-02-21 01:55:00
9:15 PM,15.8,8.6,73,29.98,10.0,WNW,26.5,36.8,N/A,,Clear,290,2013-02-21 02:15:00
9:35 PM,15.8,8.6,73,29.98,10.0,WNW,24.2,35.7,N/A,,Clear,290,2013-02-21 02:35:00
9:55 PM,15.8,8.6,73,29.98,10.0,West,24.2,31.1,N/A,,Clear,280,2013-02-21 02:55:00
10:15 PM,15.8,8.6,73,29.98,10.0,WNW,19.6,31.1,N/A,,Clear,290,2013-02-21 03:15:00
10:35 PM,15.8,8.6,73,29.97,10.0,West,23.0,33.4,N/A,,Clear,280,2013-02-21 03:35:00
10:55 PM,15.8,8.6,73,29.97,10.0,WNW,15.0,24.2,N/A,,Clear,290,2013-02-21 03:55:00
11:15 PM,15.8,8.6,73,29.97,10.0,West,23.0,29.9,N/A,,Clear,280,2013-02-21 04:15:00
11:35 PM,15.8,8.6,73,29.97,10.0,WNW,19.6,26.5,N/A,,Clear,290,2013-02-21 04:35:00
11:55 PM,14.0,8.6,79,29.97,10.0,West,17.3,23.0,N/A,,Clear,280,2013-02-21 04:55:00